Regional Weather Roundup
Issued by NWS Upton, NY

Current Version | Previous Version | Text Only | Print | Product List | Glossary On
Versions: 1 2 3 4 5 6 7 8 9 10 11 12 13 14 15 16 17 18 19 20 21 22 23 24 25 26 27 28 29 30 31 32 33 34 35 36 37 38 39 40 41 42 43 44 45 46 47 48 49 50
000 ASUS41 KOKX 220809 RWROKX REGIONAL WEATHER ROUNDUP NATIONAL WEATHER SERVICE NEW YORK NY 400 AM EDT SAT JUL 22 2017 NOTE: "FAIR" INDICATES FEW OR NO CLOUDS BELOW 12,000 FEET WITH NO SIGNIFICANT WEATHER AND/OR OBSTRUCTIONS TO VISIBILITY. NYZ071-072-176-178-NJZ106-104-220900- NEW YORK CITY METRO AREA CITY SKY/WX TMP DP RH WIND PRES REMARKS Central Park CLOUDY 81 69 67 CALM 29.89F Bronx Bot Gard N/A 79 66 65 NW3 29.86F LaGuardia APRT MOCLDY 81 71 71 NW10 29.85S Kennedy INTL MOCLDY 84 71 65 NW14 29.86F Breezy Point N/A 77 N/A N/A W6 N/A Newark/Liberty MOCLDY 81 69 67 N10 29.86S Teterboro PTCLDY 80 69 69 N8 29.85F $$ NYZ177-179-078>081-220900- LONG ISLAND NEW YORK CITY SKY/WX TMP DP RH WIND PRES REMARKS Jones Beach N/A 77 N/A N/A W3 N/A Matinecock PT N/A 79 N/A N/A N5 N/A Farmingdale PTCLDY 81 70 69 N7 29.86S MacArthur/ISP PTCLDY 79 72 79 NW8 29.85S Shirley CLOUDY 78 73 84 N7 29.86R Mt Sinai Harb N/A N/A N/A N/A NW2 N/A Westhampton MOCLDY 75 72 90 NW3 29.87R East Hampton CLOUDY 74 73 95 CALM 29.86R Montauk N/A 74 71 91 CALM 29.86F $$ NYZ052-065-067-220900- HUDSON VALLEY CITY SKY/WX TMP DP RH WIND PRES REMARKS White Plains CLEAR 73 70 88 NW7 29.87F Larchmont Harb N/A 79 N/A N/A NW7 N/A Croton O-T Hud N/A 75 N/A N/A MISG N/A Newburgh CLOUDY 70 70 100 CALM 29.90F Montgomery CLEAR 69 67 93 CALM 29.89F Poughkeepsie CLEAR 69 66 90 CALM 29.87S Albany CLOUDY 68 59 73 CALM 29.88F $$ NJZ001-105-106-008-010-013-015-019>022-104-220900- NEW JERSEY CITY SKY/WX TMP DP RH WIND PRES REMARKS Newark/Liberty MOCLDY 81 69 67 N10 29.86S Teterboro PTCLDY 80 69 69 N8 29.85F Caldwell CLEAR 76 69 79 CALM 29.88F Somerville CLEAR 72 71 97 CALM 29.86S FOG Linden FAIR 79 70 73 CALM 29.86F Perth Amboy N/A 79 N/A N/A W2 N/A Sussex PTCLDY 68 68 100 CALM 29.90F Andover N/A 71 69 93 CALM 29.91F Trenton CLEAR 76 72 87 CALM 29.86F Millville HVY RAIN 76 76 100 W5 29.88S VSB 3/4 Atlantic City CLOUDY 79 74 84 SW5 29.87S Wrightstown CLEAR 75 71 88 CALM 29.84F Toms River CLEAR 75 73 93 W3 29.87S FOG Belmar CLEAR 77 71 82 W3 29.87F $$ PAZ047>061-062-071-220900- EASTERN PENNSYLVANIA CITY SKY/WX TMP DP RH WIND PRES REMARKS Philadelphia CLOUDY 80 75 84 S3 29.86F Allentown CLEAR 73 69 87 N3 29.89F Scranton PTCLDY 70 68 93 SE3 29.93F $$ CTZ002-004>006-009-010-012-RIZ004-006-007-MAZ004-011-015-220900- SOUTHERN NEW ENGLAND IN CT CITY SKY/WX TMP DP RH WIND PRES REMARKS Bradley INTL MOCLDY 71 59 65 NW5 29.86F Hartford CLEAR 76 58 53 NW6 29.85F Danbury CLEAR 70 68 93 SW3 29.89F Wtrbury/Oxford CLEAR 68 61 77 N6 29.89S Bridgeport PTCLDY 77 67 71 N6 29.85F Meriden PTCLDY 70 68 93 CALM 29.86F New Haven MOCLDY 74 67 78 N6 29.86S Chester FAIR 75 64 69 N8 29.87S Groton PTCLDY 73 67 81 N3 29.84F Wilimantic CLEAR 70 67 90 CALM 29.86F IN RI CITY SKY/WX TMP DP RH WIND PRES REMARKS Providence PTCLDY 74 66 76 NW6 29.85F Block Island CLOUDY 73 70 90 W6 29.86R Westerly CLEAR 74 68 81 NW3 29.85F IN MA CITY SKY/WX TMP DP RH WIND PRES REMARKS Boston MOCLDY 75 58 55 W10 29.82F Worcester MOCLDY 70 56 61 W10 29.88F Westfield CLOUDY 70 60 70 N10 29.86F Provincetown MOCLDY 70 63 78 W8 29.82S Nantucket N/A 74 68 81 NW8 29.83F $$ ANZ330-335-338-340-345-350-353-355-220900- COASTAL MARINE OBSERVATIONS STATION/POSITION TIME SKY/WX TEMP WIND PRES VSBY WAVE AIR SEA DIR/SP/G HT/PER (UTC) (F) (DEG/KT/KT) (MB) (MI) (FT/S) NY HARB ENTRANCE 0750 78 75 290/ 10/ 12 1010.6 2/ 5 20 S FIRE ISLAND 0750 78 76 250/ 6/ 8 1010.2 3/ 6 GREAT SOUTH BAY 0730 82 82 280/ 10/ 12 N/A 23 SSW MONTAUK P 0750 77 75 1010.4 3/ 5 15 E BARNEGAT LI 0730 78 N/A 2/11 HUDSON CANYON 0750 80 80 240/ 10/ 10 1010.5 3/11 KINGS POINT 0748 79 76 20/ 7/ 8 1011.0 EXECUTION ROCKS 0745 78 350/ 4/ 8 N/A CENTRAL LI SOUND 0730 77 350/ 6/ 8 N/A 1 EASTERN LI SOUND NOT AVBL ROBBINS REEF 0742 330/ 9/ 12 1011.8 $$ >>>>>>>>>>>>>>>>>>>>>>>>>>>> KEY <<<<<<<<<<<<<<<<<<<<<<<<<<< > < > SKY/WX - Sky Condition/Present Weather < > TMP - Temperature in Fahrenheit < > DP - Dew Point in Fahrenheit < > RH - Relative Humidity in Percent < > WIND - Direction (from) and Speed in MPH < > PRES - Mean Sea Level Pressure (inches of Hg) < > WCI - Wind Chill Index < > VSB - VISIBILITY IN MILES < > HX - HEAT INDEX < > TC - TEMPERATURE IN CELSIUS < > VRB - VARIABLE WIND DIRECTION < > < >>>>>>>>>>>>>>>>>>>>>>>>>>>> KEY <<<<<<<<<<<<<<<<<<<<<<<<<<<

USA.gov is the U.S. government's official web portal to all federal, state and local government web resources and services.